FW7087 Weather Reports


Display with metric or nautical units.
time (UTC)temp
F
wind
direction
speed
MPH
gust
MPH
rain 1hr
in
rain 24hr
in
rain mn
in
humidity
%
barometer
mb
20260509184004 86 30 0.0 1.0 0.00 0.00 0.00 75 1009.8
20260509183004 86 30 0.0 1.0 0.00 0.00 0.00 77 1009.9
20260509182004 85 30 0.0 2.0 0.00 0.00 0.00 77 1010.1
20260509180005 84 30 0.0 2.0 0.00 0.00 0.00 77 1010.3
20260509175004 84 30 0.0 0.0 0.00 0.00 0.00 76 1010.5
20260509174004 84 30 0.0 0.0 0.00 0.00 0.00 79 1010.6
20260509172004 82 30 0.0 3.0 0.00 0.00 0.00 82 1010.4
20260509171004 82 32 1.0 3.0 0.00 0.00 0.00 82 1010.1
20260509170004 81 32 0.0 0.0 0.00 0.00 0.00 83 1010.5
20260509165004 81 32 0.0 0.0 0.00 0.00 0.00 83 1010.8
20260509164004 81 32 0.0 0.0 0.00 0.00 0.00 83 1010.7
20260509163004 81 32 0.0 1.0 0.00 0.00 0.00 82 1010.8
20260509162009 81 32 0.0 0.0 0.00 0.00 0.00 84 1010.9
20260509161004 80 32 0.0 2.0 0.00 0.00 0.00 84 1011.1
20260509160004 81 32 0.0 2.0 0.00 0.00 0.00 83 1011.0
20260509154003 80 32 0.0 0.0 0.00 0.00 0.00 86 1011.0
20260509153005 79 32 0.0 0.0 0.00 0.00 0.00 87 1010.8
20260509152004 78 32 0.0 4.0 0.00 0.00 0.00 88 1010.7
20260509150004 77 17 0.0 2.0 0.00 0.00 0.00 89 1010.6
20260509145004 76 16 0.0 2.0 0.00 0.00 0.00 90 1010.6
20260509143004 75 16 0.0 1.0 0.00 0.00 0.00 92 1010.3
20260509142004 75 16 0.0 0.0 0.00 0.00 0.00 92 1010.1
20260509141003 75 16 0.0 4.0 0.00 0.00 0.00 92 1010.0
20260509135005 75 16 0.0 0.0 0.00 0.00 0.00 93 1010.6
20260509134004 74 16 0.0 0.0 0.00 0.00 0.00 93 1010.6
20260509133004 74 16 0.0 0.0 0.00 0.00 0.00 93 1010.7
20260509132005 74 16 0.0 0.0 0.00 0.00 0.00 93 1010.8
20260509131003 74 16 0.0 0.0 0.00 0.00 0.00 93 1010.9
20260509125005 74 16 0.0 0.0 0.00 0.00 0.00 93 1010.9
20260509123003 73 16 0.0 0.0 0.00 0.00 0.00 93 1011.0
20260509122003 73 16 0.0 0.0 0.00 0.00 0.00 93 1010.8
20260509121005 73 16 0.0 0.0 0.00 0.00 0.00 93 1010.6
20260509114004 73 16 0.0 0.0 0.00 0.00 0.00 93 1010.3
20260509113004 73 16 0.0 0.0 0.00 0.00 0.00 93 1010.1
20260509112003 73 16 0.0 0.0 0.00 0.00 0.00 93 1010.0
20260509111004 73 16 0.0 0.0 0.00 0.00 0.00 93 1010.2
20260509110004 73 16 0.0 0.0 0.00 0.00 0.00 93 1009.8
20260509105004 73 16 0.0 0.0 0.00 0.00 0.00 93 1009.9
20260509103005 73 16 0.0 0.0 0.00 0.00 0.00 93 1010.4
20260509102004 73 16 0.0 0.0 0.00 0.00 0.00 93 1010.5
20260509101005 73 16 0.0 0.0 0.00 0.00 0.00 93 1010.2
20260509100005 73 16 0.0 0.0 0.00 0.00 0.00 93 1010.1
20260509095004 73 16 0.0 0.0 0.00 0.00 0.00 93 1010.1
20260509093005 73 16 0.0 0.0 0.00 0.00 0.00 93 1009.8
20260509092004 73 16 0.0 0.0 0.00 0.00 0.00 93 1010.0
20260509091004 73 16 0.0 0.0 0.00 0.00 0.00 93 1010.5
20260509085005 73 16 0.0 0.0 0.00 0.00 0.00 93 1010.4
20260509084004 73 16 0.0 0.0 0.00 0.00 0.00 93 1010.4
20260509083004 73 16 0.0 0.0 0.00 0.00 0.00 93 1010.3
20260509082004 73 16 0.0 0.0 0.00 0.00 0.00 93 1010.1
20260509081005 73 16 0.0 0.0 0.00 0.00 0.00 93 1010.3
20260509075004 73 16 0.0 0.0 0.00 0.00 0.00 93 1010.5
20260509074006 73 16 0.0 0.0 0.00 0.00 0.00 93 1010.5
20260509073004 73 16 0.0 4.0 0.00 0.00 0.00 93 1010.3
20260509072004 73 16 0.0 3.0 0.00 0.00 0.00 93 1010.1
20260509071005 73 16 1.0 2.0 0.00 0.00 0.00 93 1010.1
20260509070004 73 16 0.0 4.0 0.00 0.00 0.00 93 1010.3
20260509062004 73 16 1.0 6.0 0.00 0.00 0.00 93 1010.2
20260509061004 73 16 2.0 6.0 0.00 0.00 0.00 93 1010.5
20260509055004 73 18 3.0 5.0 0.00 0.00 0.00 92 1010.8
20260509054004 73 17 0.0 5.0 0.00 0.00 0.00 93 1010.8
20260509053004 73 18 1.0 6.0 0.00 0.00 0.00 93 1010.6
20260509052004 73 18 2.0 7.0 0.00 0.00 0.00 92 1010.5
20260509051004 73 18 1.0 6.0 0.00 0.00 0.00 93 1010.8
20260509050004 73 17 1.0 5.0 0.00 0.00 0.00 92 1011.0
20260509045004 73 19 0.0 4.0 0.00 0.00 0.00 92 1010.8
20260509044004 73 18 2.0 4.0 0.00 0.00 0.00 92 1010.6
20260509043004 73 18 3.0 4.0 0.00 0.00 0.00 92 1010.6
20260509042004 73 18 0.0 4.0 0.00 0.00 0.00 92 1010.6
20260509041004 73 20 0.0 6.0 0.00 0.00 0.00 92 1010.4
20260509035003 73 18 2.0 5.0 0.00 0.00 0.00 92 1010.7
20260509033003 73 20 1.0 5.0 0.00 0.00 0.00 91 1010.5
20260509030003 73 25 2.0 6.0 0.00 0.00 0.00 91 1009.9
20260509025004 73 25 1.0 5.0 0.00 0.00 0.00 91 1009.7
20260509024004 74 25 1.0 6.0 0.00 0.00 0.00 90 1009.8
20260509023004 74 27 3.0 7.0 0.00 0.00 0.00 90 1009.8
20260509022003 74 31 0.0 6.0 0.00 0.00 0.00 90 1009.8
20260509021004 74 30 3.0 6.0 0.00 0.00 0.00 89 1009.8
20260509014003 75 31 0.0 4.0 0.00 0.00 0.00 88 1009.6
20260509013003 75 31 0.0 3.0 0.00 0.00 0.00 88 1009.5
20260509011003 75 31 0.0 4.0 0.00 0.00 0.00 87 1009.2
20260509010004 75 31 0.0 4.0 0.00 0.00 0.00 87 1009.1
20260509005003 75 31 0.0 3.0 0.00 0.00 0.00 86 1009.4
20260509004003 76 32 0.0 2.0 0.00 0.00 0.00 86 1009.3
20260509002004 76 32 0.0 4.0 0.00 0.00 0.00 86 1009.4
20260509001004 76 31 0.0 4.0 0.00 0.00 0.00 86 1009.5
20260509000004 76 31 4.0 5.0 0.00 0.00 0.00 85 1009.4
20260508235003 77 33 0.0 2.0 0.00 0.00 0.00 84 1009.7
20260508234004 77 32 0.0 4.0 0.00 0.00 0.00 83 1009.7
20260508233003 77 33 1.0 3.0 0.00 0.00 0.00 82 1009.7
20260508232004 77 33 0.0 5.0 0.00 0.00 0.00 82 1009.5
20260508231005 77 33 0.0 4.0 0.00 0.00 0.00 83 1009.5
20260508230004 78 33 3.0 5.0 0.00 0.00 0.00 83 1009.6
20260508225004 78 33 1.0 5.0 0.00 0.00 0.00 82 1009.4
20260508224004 78 33 0.0 1.0 0.00 0.00 0.00 82 1009.5
20260508223004 79 33 0.0 1.0 0.00 0.00 0.00 83 1009.3
20260508222004 79 33 0.0 0.0 0.00 0.00 0.00 81 1009.5
20260508221004 79 33 0.0 3.0 0.00 0.00 0.00 81 1009.5
20260508214004 80 33 0.0 3.0 0.00 0.00 0.00 79 1009.6
20260508213004 80 34 0.0 3.0 0.00 0.00 0.00 78 1009.5
20260508212004 81 34 0.0 0.0 0.00 0.00 0.00 77 1009.7
20260508211005 81 34 0.0 0.0 0.00 0.00 0.00 76 1009.8
20260508210004 81 34 0.0 0.0 0.00 0.00 0.00 76 1009.9
20260508205004 81 34 0.0 0.0 0.00 0.00 0.00 75 1010.1
20260508204005 81 34 0.0 1.0 0.00 0.00 0.00 75 1010.2
20260508202004 82 34 0.0 3.0 0.00 0.00 0.00 75 1010.3
20260508201004 82 36 0.0 0.0 0.00 0.00 0.00 73 1010.5
20260508200004 82 36 0.0 0.0 0.00 0.00 0.00 73 1010.6
20260508195004 82 36 0.0 0.0 0.00 0.00 0.00 75 1010.7
20260508194004 81 36 0.0 0.0 0.00 0.00 0.00 77 1010.8
20260508193004 80 36 0.0 1.0 0.00 0.00 0.00 76 1010.8
20260508192004 80 36 0.0 0.0 0.00 0.00 0.00 75 1011.2
20260508190004 79 36 0.0 0.0 0.00 0.00 0.00 79 1011.3